Date String (YYYY-MM-DD hh:mm:ss) UTC,Instrument flags,Ambient pressure (hPa),Sample flow (lpm),Bypass flow (lpm),Sample temperature (°C),Ambient temperature (°C),ASC tube jacket temperature (°C),LED temperature (°C),Box temperature (°C),Sample RH (%),Span deviation,Mass concentration (μg/m³),Mass concentration (μg/m³),Mass concentration (μg/m³)
DateTimeUTC,F1_M11,P_M11,Q1_M11,Q2_M11,T1_M11,T2_M11,T3_M11,T4_M11,T5_M11,U1_M11,ZSPAN_M11,X0_M11,X2_M11,X1_M11
2023-01-18 21:00:00,,0816.2,5.01,0.00,22.8,21.3,00.0,31.5,24.6,15.3,0000.0,0002.41,0001.86,0001.65
2023-01-18 21:01:00,,0816.2,5.00,0.00,22.8,21.3,00.0,31.5,24.6,15.3,0000.0,0002.41,0001.88,0001.66
2023-01-18 21:02:00,,0816.3,4.99,0.00,22.8,21.2,00.0,31.5,24.5,15.3,0000.0,0002.38,0001.89,0001.67
2023-01-18 21:03:00,,0816.3,5.00,0.00,22.8,21.1,00.0,31.5,24.5,15.2,0000.0,0002.41,0001.91,0001.68
2023-01-18 21:04:00,,0816.3,5.00,0.00,22.8,21.0,00.0,31.5,24.5,15.2,0000.0,0002.48,0001.91,0001.69
2023-01-18 21:05:00,,0816.3,5.01,0.00,22.7,20.9,00.0,31.5,24.4,15.3,0000.0,0002.33,0001.88,0001.70
2023-01-18 21:06:00,,0816.3,5.00,0.00,22.7,20.7,00.0,31.5,24.3,15.4,0000.0,0002.45,0001.91,0001.72
2023-01-18 21:07:00,,0816.3,5.00,0.00,22.6,20.6,00.0,31.5,24.2,15.4,0000.0,0002.92,0001.96,0001.73
2023-01-18 21:08:00,,0816.3,5.00,0.00,22.6,20.4,00.0,31.5,24.1,15.5,0000.0,0003.25,0001.97,0001.76
2023-01-18 21:09:00,,0816.3,5.01,0.00,22.5,20.3,00.0,31.4,24.0,15.5,0000.0,0003.27,0001.95,0001.76
2023-01-18 21:10:00,,0816.3,5.01,0.00,22.4,20.2,00.0,31.4,24.0,15.6,0000.0,0003.32,0001.97,0001.78
2023-01-18 21:11:00,,0816.3,5.02,0.00,22.4,20.2,00.0,31.4,23.9,15.6,0000.0,0003.43,0002.00,0001.80
2023-01-18 21:12:00,,0816.4,5.02,0.00,22.4,20.2,00.0,31.3,23.9,15.6,0000.0,0003.46,0002.01,0001.82
2023-01-18 21:13:00,,0816.4,5.00,0.00,22.3,20.2,00.0,31.3,23.9,15.7,0000.0,0003.51,0002.03,0001.84
2023-01-18 21:14:00,,0816.4,5.00,0.00,22.3,20.1,00.0,31.3,23.9,15.7,0000.0,0003.49,0002.02,0001.84
2023-01-18 21:15:00,,0816.4,5.00,0.00,22.3,20.6,00.0,31.2,24.0,15.7,0000.0,0003.48,0002.05,0001.85
2023-01-18 21:16:00,,0816.4,5.00,0.00,22.4,21.7,00.0,31.2,24.2,15.7,0000.0,0003.50,0002.09,0001.87
2023-01-18 21:17:00,,0816.4,5.00,0.00,22.5,22.6,00.0,31.2,24.5,15.6,0000.0,0003.44,0002.10,0001.89
2023-01-18 21:18:00,,0816.4,4.98,0.00,22.6,22.3,00.0,31.3,24.5,15.6,0000.0,0003.16,0002.10,0001.91
2023-01-18 21:19:00,,0816.4,4.99,0.00,22.5,21.7,00.0,31.3,24.3,15.6,0000.0,0002.73,0002.12,0001.93
2023-01-18 21:20:00,,0816.4,5.01,0.00,22.5,21.3,00.0,31.3,24.2,15.6,0000.0,0003.36,0002.21,0001.97
2023-01-18 21:21:00,,0816.4,4.99,0.00,22.5,21.0,00.0,31.3,24.1,15.6,0000.0,0003.43,0002.24,0001.99
2023-01-18 21:22:00,,0816.4,4.99,0.00,22.4,20.7,00.0,31.3,24.0,15.7,0000.0,0003.41,0002.28,0002.01
2023-01-18 21:23:00,,0816.4,5.01,0.00,22.4,20.4,00.0,31.3,24.0,15.8,0000.0,0003.43,0002.31,0002.04
2023-01-18 21:24:00,,0816.4,5.00,0.00,22.3,20.3,00.0,31.3,23.9,15.8,0000.0,0003.45,0002.34,0002.07
2023-01-18 21:25:00,,0816.4,4.98,0.00,22.3,20.1,00.0,31.2,23.9,15.8,0000.0,0003.48,0002.37,0002.11
2023-01-18 21:26:00,,0816.5,5.00,0.00,22.2,20.1,00.0,31.2,23.8,15.8,0000.0,0003.41,0002.35,0002.13
2023-01-18 21:27:00,,0816.4,5.01,0.00,22.2,19.9,00.0,31.2,23.7,16.0,0000.0,0003.39,0002.36,0002.16
2023-01-18 21:28:00,,0816.4,4.99,0.00,22.1,19.7,00.0,31.1,23.6,16.0,0000.0,0003.42,0002.39,0002.18
2023-01-18 21:29:00,,0816.4,5.00,0.00,22.1,19.6,00.0,31.1,23.5,16.1,0000.0,0003.49,0002.42,0002.19
2023-01-18 21:30:00,,0816.5,5.00,0.00,22.0,19.5,00.0,31.1,23.4,16.2,0000.0,0003.47,0002.40,0002.20
2023-01-18 21:31:00,,0816.4,4.99,0.00,21.9,19.3,00.0,31.0,23.3,16.2,0000.0,0002.94,0002.36,0002.21
2023-01-18 21:32:00,,0816.5,4.99,0.00,21.8,19.2,00.0,31.0,23.2,16.3,0000.0,0002.87,0002.37,0002.21
2023-01-18 21:33:00,,0816.4,5.00,0.00,21.8,19.1,00.0,30.9,23.2,16.4,0000.0,0003.22,0002.37,0002.21
2023-01-18 21:34:00,,0816.5,5.01,0.00,21.7,19.6,00.0,30.9,23.2,16.5,0000.0,0003.66,0002.39,0002.21
2023-01-18 21:35:00,,0816.5,5.00,0.00,21.8,21.0,00.0,30.8,23.6,16.4,0000.0,0003.66,0002.39,0002.21
2023-01-18 21:36:00,,0816.5,5.00,0.00,22.0,22.2,00.0,30.8,23.9,16.2,0000.0,0003.66,0002.38,0002.20
2023-01-18 21:37:00,,0816.5,4.99,0.00,22.1,22.1,00.0,30.9,24.0,16.2,0000.0,0003.74,0002.42,0002.22
2023-01-18 21:38:00,,0816.5,4.99,0.00,22.0,21.5,00.0,30.9,23.8,16.1,0000.0,0003.87,0002.48,0002.24
2023-01-18 21:39:00,,0816.5,5.00,0.00,22.0,20.8,00.0,30.9,23.6,16.1,0000.0,0003.91,0002.50,0002.27
2023-01-18 21:40:00,,0816.5,5.00,0.00,22.0,20.4,00.0,30.9,23.5,16.1,0000.0,0003.92,0002.53,0002.30
2023-01-18 21:41:00,,0816.5,5.00,0.00,21.9,20.0,00.0,30.9,23.4,16.1,0000.0,0003.99,0002.56,0002.33
2023-01-18 21:42:00,,0816.7,5.00,0.00,21.8,19.8,00.0,30.8,23.3,16.2,0000.0,0004.02,0002.59,0002.34
2023-01-18 21:43:00,,0816.5,5.01,0.00,21.8,19.6,00.0,30.8,23.2,16.2,0000.0,0004.04,0002.61,0002.35
2023-01-18 21:44:00,,0816.7,5.00,0.00,21.7,19.4,00.0,30.8,23.1,16.4,0000.0,0003.78,0002.62,0002.37
2023-01-18 21:45:00,,0816.7,5.00,0.00,21.7,19.3,00.0,30.7,23.1,16.4,0000.0,0003.26,0002.61,0002.39
2023-01-18 21:46:00,,0816.6,4.98,0.00,21.6,19.2,00.0,30.7,23.0,16.5,0000.0,0003.33,0002.64,0002.40
2023-01-18 21:47:00,,0816.7,4.98,0.00,21.5,19.1,00.0,30.7,22.9,16.6,0000.0,0003.45,0002.67,0002.42
2023-01-18 21:48:00,,0816.7,5.00,0.00,21.5,19.0,00.0,30.6,22.9,16.7,0000.0,0003.46,0002.68,0002.44
2023-01-18 21:49:00,,0816.7,5.01,0.00,21.5,19.0,00.0,30.6,22.9,16.7,0000.0,0003.40,0002.66,0002.44
2023-01-18 21:50:00,,0817.1,5.01,0.00,21.4,19.5,00.0,30.5,23.0,16.6,0000.0,0003.47,0002.69,0002.46
2023-01-18 21:51:00,,0817.0,5.00,0.00,21.5,21.1,00.0,30.5,23.3,16.5,0000.0,0003.56,0002.74,0002.47
2023-01-18 21:52:00,,0817.2,4.99,0.00,21.7,21.8,00.0,30.5,23.6,16.4,0000.0,0003.62,0002.78,0002.49
2023-01-18 21:53:00,,0816.9,4.99,0.00,21.7,21.2,00.0,30.5,23.5,16.3,0000.0,0003.72,0002.82,0002.53
2023-01-18 21:54:00,,0817.0,5.01,0.00,21.7,20.7,00.0,30.5,23.4,16.3,0000.0,0003.84,0002.86,0002.58
2023-01-18 21:55:00,,0816.9,4.98,0.00,21.7,20.3,00.0,30.5,23.3,16.3,0000.0,0003.96,0002.93,0002.64
2023-01-18 21:56:00,,0817.1,5.00,0.00,21.6,20.0,00.0,30.5,23.2,16.3,0000.0,0004.05,0003.00,0002.69
2023-01-18 21:57:00,,0817.2,5.02,0.00,21.6,19.8,00.0,30.5,23.1,16.4,0000.0,0004.04,0003.02,0002.73
2023-01-18 21:58:00,,0816.9,5.00,0.00,21.5,19.5,00.0,30.5,23.0,16.4,0000.0,0004.06,0003.07,0002.77
2023-01-18 21:59:00,,0817.2,5.00,0.00,21.5,19.3,00.0,30.5,22.9,16.4,0000.0,0004.21,0003.11,0002.81
